| time (UTC) | temp F | wind direction | speed knots | gust knots | rain 1hr in | rain 24hr in | rain mn in | humidity % | barometer mb |
| 20260905132031 | 54 | 0 | 0.0 | 0.0 | 0.10 | 0.41 | 0.41 | 93 | 1003.5 |
| 20260905131546 | 53 | 0 | 0.0 | 1.7 | 0.09 | 0.40 | 0.40 | 93 | 1003.6 |
| 20260905131033 | 53 | 0 | 0.0 | 2.6 | 0.09 | 0.40 | 0.40 | 92 | 1003.5 |
| 20260905130532 | 53 | 351 | 1.7 | 4.3 | 0.09 | 0.40 | 0.40 | 92 | 1003.6 |
| 20260905130050 | 53 | 345 | 1.7 | 6.1 | 0.08 | 0.40 | 0.40 | 92 | 1003.5 |
| 20260905125531 | 53 | 335 | 2.6 | 7.0 | 0.06 | 0.37 | 0.37 | 91 | 1003.4 |
| 20260905125031 | 53 | 351 | 2.6 | 7.0 | 0.04 | 0.36 | 0.36 | 90 | 1003.3 |
| 20260905124553 | 54 | 314 | 4.3 | 7.0 | 0.02 | 0.33 | 0.33 | 89 | 1003.3 |
| 20260905124034 | 55 | 347 | 3.5 | 7.0 | 0.00 | 0.31 | 0.31 | 88 | 1003.2 |
| 20260905123532 | 56 | 15 | 2.6 | 7.0 | 0.00 | 0.31 | 0.31 | 87 | 1003.2 |
| 20260905123046 | 57 | 274 | 2.6 | 6.1 | 0.00 | 0.31 | 0.31 | 86 | 1003.1 |
| 20260905122531 | 57 | 323 | 0.9 | 2.6 | 0.00 | 0.31 | 0.31 | 86 | 1003.0 |
| 20260905122031 | 57 | 305 | 0.0 | 2.6 | 0.00 | 0.31 | 0.31 | 85 | 1002.9 |
| 20260905121558 | 57 | 285 | 0.9 | 2.6 | 0.00 | 0.31 | 0.31 | 85 | 1002.8 |
| 20260905121031 | 57 | 263 | 0.9 | 2.6 | 0.00 | 0.31 | 0.31 | 86 | 1002.8 |
| 20260905120531 | 58 | 283 | 0.9 | 2.6 | 0.00 | 0.31 | 0.31 | 85 | 1002.7 |
| 20260905120107 | 58 | 0 | 0.0 | 0.9 | 0.00 | 0.31 | 0.31 | 85 | 1002.6 |
| 20260905115532 | 57 | 0 | 0.0 | 1.7 | 0.00 | 0.31 | 0.31 | 85 | 1002.6 |
| 20260905115032 | 58 | 0 | 0.0 | 1.7 | 0.00 | 0.31 | 0.31 | 84 | 1002.5 |
| 20260905114559 | 58 | 218 | 0.0 | 1.7 | 0.00 | 0.31 | 0.31 | 84 | 1002.5 |
| 20260905114031 | 57 | 285 | 0.9 | 1.7 | 0.00 | 0.31 | 0.31 | 83 | 1002.5 |
| 20260905113535 | 58 | 0 | 0.0 | 1.7 | 0.00 | 0.31 | 0.31 | 83 | 1002.4 |
| 20260905113058 | 58 | 0 | 0.0 | 0.0 | 0.00 | 0.31 | 0.31 | 84 | 1002.3 |
| 20260905112531 | 57 | 0 | 0.0 | 0.9 | 0.00 | 0.31 | 0.31 | 84 | 1002.2 |
| 20260905112032 | 58 | 0 | 0.0 | 0.9 | 0.00 | 0.31 | 0.31 | 86 | 1002.1 |
| 20260905111651 | 57 | 113 | 0.0 | 1.7 | 0.00 | 0.31 | 0.31 | 86 | 1002.1 |
| 20260905111031 | 56 | 0 | 0.0 | 1.7 | 0.00 | 0.31 | 0.31 | 87 | 1002.0 |
| 20260905110530 | 56 | 0 | 0.0 | 3.5 | 0.00 | 0.31 | 0.31 | 87 | 1002.0 |
| 20260905110055 | 56 | 0 | 0.9 | 3.5 | 0.00 | 0.31 | 0.31 | 88 | 1001.9 |
| 20260905105532 | 57 | 147 | 0.0 | 3.5 | 0.00 | 0.31 | 0.31 | 88 | 1001.9 |
| 20260905105030 | 57 | 127 | 0.0 | 4.3 | 0.00 | 0.31 | 0.31 | 87 | 1001.9 |
| 20260905104555 | 57 | 118 | 0.0 | 4.3 | 0.00 | 0.31 | 0.31 | 88 | 1001.8 |
| 20260905104032 | 57 | 0 | 0.9 | 3.5 | 0.00 | 0.31 | 0.31 | 89 | 1001.7 |
| 20260905103533 | 58 | 89 | 0.0 | 3.5 | 0.00 | 0.31 | 0.31 | 90 | 1001.6 |
| 20260905103102 | 58 | 212 | 0.9 | 2.6 | 0.00 | 0.31 | 0.31 | 92 | 1001.6 |
| 20260905102530 | 57 | 0 | 0.0 | 2.6 | 0.00 | 0.31 | 0.31 | 93 | 1001.5 |
| 20260905102031 | 56 | 127 | 0.9 | 2.6 | 0.00 | 0.31 | 0.31 | 92 | 1001.5 |
| 20260905101552 | 56 | 165 | 0.9 | 2.6 | 0.00 | 0.31 | 0.31 | 94 | 1001.5 |
| 20260905101031 | 55 | 144 | 0.9 | 2.6 | 0.00 | 0.31 | 0.31 | 94 | 1001.4 |
| 20260905100531 | 54 | 115 | 0.0 | 2.6 | 0.00 | 0.31 | 0.31 | 94 | 1001.4 |
| 20260905100059 | 54 | 0 | 0.0 | 2.6 | 0.00 | 0.31 | 0.31 | 94 | 1001.4 |
| 20260905095530 | 54 | 110 | 0.9 | 2.6 | 0.01 | 0.31 | 0.31 | 94 | 1001.4 |
| 20260905095033 | 54 | 107 | 0.0 | 2.6 | 0.01 | 0.31 | 0.31 | 94 | 1001.3 |
| 20260905094554 | 54 | 98 | 0.9 | 2.6 | 0.01 | 0.31 | 0.31 | 94 | 1001.5 |
| 20260905094032 | 54 | 110 | 0.0 | 0.9 | 0.02 | 0.31 | 0.31 | 95 | 1001.4 |
| 20260905093530 | 54 | 0 | 0.0 | 0.9 | 0.02 | 0.31 | 0.31 | 95 | 1001.3 |
| 20260905093106 | 53 | 0 | 0.0 | 0.9 | 0.02 | 0.31 | 0.31 | 95 | 1001.4 |
| 20260905092533 | 53 | 0 | 0.0 | 1.7 | 0.02 | 0.31 | 0.31 | 95 | 1001.3 |
| 20260905092031 | 53 | 0 | 0.0 | 1.7 | 0.03 | 0.31 | 0.31 | 95 | 1001.3 |
| 20260905091551 | 53 | 0 | 0.0 | 0.0 | 0.04 | 0.31 | 0.31 | 96 | 1001.2 |
| 20260905091030 | 53 | 0 | 0.0 | 0.0 | 0.04 | 0.30 | 0.30 | 96 | 1001.2 |
| 20260905090535 | 53 | 0 | 0.0 | 0.0 | 0.05 | 0.30 | 0.30 | 96 | 1001.1 |
| 20260905090054 | 52 | 0 | 0.0 | 0.0 | 0.07 | 0.30 | 0.30 | 96 | 1001.1 |
| 20260905085531 | 52 | 0 | 0.0 | 0.0 | 0.07 | 0.29 | 0.29 | 96 | 1001.0 |
| 20260905085034 | 52 | 0 | 0.0 | 0.0 | 0.07 | 0.29 | 0.29 | 96 | 1000.9 |
| 20260905084557 | 52 | 0 | 0.0 | 0.0 | 0.07 | 0.29 | 0.29 | 96 | 1000.9 |
| 20260905084031 | 52 | 0 | 0.0 | 0.0 | 0.07 | 0.29 | 0.29 | 96 | 1001.0 |
| 20260905083534 | 52 | 0 | 0.0 | 0.9 | 0.10 | 0.29 | 0.29 | 96 | 1000.8 |
| 20260905083048 | 52 | 0 | 0.0 | 0.9 | 0.11 | 0.29 | 0.29 | 96 | 1000.8 |
| 20260905082531 | 51 | 0 | 0.0 | 0.0 | 0.11 | 0.29 | 0.29 | 96 | 1000.8 |
| 20260905082031 | 51 | 0 | 0.0 | 0.9 | 0.10 | 0.28 | 0.28 | 96 | 1000.8 |
| 20260905081547 | 51 | 0 | 0.0 | 0.9 | 0.09 | 0.26 | 0.26 | 96 | 1000.9 |
| 20260905081033 | 51 | 0 | 0.0 | 0.9 | 0.08 | 0.25 | 0.25 | 96 | 1000.8 |
| 20260905080530 | 51 | 0 | 0.0 | 0.0 | 0.07 | 0.24 | 0.24 | 96 | 1000.8 |
| 20260905080045 | 51 | 0 | 0.0 | 0.0 | 0.07 | 0.23 | 0.23 | 96 | 1000.8 |
| 20260905075533 | 50 | 0 | 0.0 | 0.0 | 0.07 | 0.22 | 0.22 | 96 | 1000.6 |
| 20260905075033 | 50 | 0 | 0.0 | 0.0 | 0.07 | 0.22 | 0.22 | 96 | 1000.7 |
| 20260905074553 | 50 | 0 | 0.0 | 0.0 | 0.07 | 0.22 | 0.22 | 96 | 1000.6 |
| 20260905074030 | 50 | 0 | 0.0 | 1.7 | 0.05 | 0.20 | 0.20 | 96 | 1000.5 |
| 20260905073531 | 50 | 0 | 0.0 | 1.7 | 0.04 | 0.18 | 0.18 | 96 | 1000.5 |
| 20260905073048 | 50 | 311 | 0.0 | 1.7 | 0.04 | 0.18 | 0.18 | 96 | 1000.5 |
| 20260905072531 | 50 | 0 | 0.0 | 0.0 | 0.07 | 0.18 | 0.18 | 96 | 1000.5 |
| 20260905072030 | 50 | 0 | 0.0 | 0.0 | 0.07 | 0.17 | 0.17 | 96 | 1000.4 |
| 20260905071549 | 50 | 0 | 0.0 | 0.0 | 0.07 | 0.17 | 0.17 | 96 | 1000.4 |
| 20260905071030 | 50 | 0 | 0.0 | 0.0 | 0.07 | 0.17 | 0.17 | 96 | 1000.2 |
| 20260905070534 | 49 | 0 | 0.0 | 0.0 | 0.06 | 0.16 | 0.16 | 96 | 1000.1 |
| 20260905070053 | 49 | 0 | 0.0 | 0.0 | 0.07 | 0.16 | 0.16 | 96 | 1000.2 |
| 20260905065532 | 49 | 0 | 0.0 | 0.0 | 0.07 | 0.15 | 0.15 | 96 | 1000.2 |
| 20260905065031 | 49 | 0 | 0.0 | 0.0 | 0.07 | 0.14 | 0.14 | 96 | 1000.2 |
| 20260905064558 | 49 | 0 | 0.0 | 0.0 | 0.07 | 0.14 | 0.14 | 96 | 1000.1 |
| 20260905064031 | 49 | 0 | 0.0 | 0.9 | 0.07 | 0.14 | 0.14 | 96 | 999.9 |
| 20260905063532 | 49 | 0 | 0.0 | 2.6 | 0.07 | 0.14 | 0.14 | 96 | 999.8 |
| 20260905063048 | 49 | 92 | 0.9 | 2.6 | 0.07 | 0.12 | 0.12 | 96 | 999.9 |
| 20260905062532 | 49 | 134 | 0.0 | 1.7 | 0.07 | 0.11 | 0.11 | 95 | 999.9 |
| 20260905062032 | 48 | 0 | 0.0 | 1.7 | 0.07 | 0.10 | 0.10 | 96 | 1000.0 |
| 20260905061547 | 48 | 0 | 0.0 | 0.9 | 0.07 | 0.10 | 0.10 | 96 | 1000.0 |
| 20260905061033 | 48 | 0 | 0.0 | 0.9 | 0.07 | 0.10 | 0.10 | 96 | 999.7 |
| 20260905060532 | 48 | 0 | 0.0 | 0.9 | 0.07 | 0.10 | 0.10 | 96 | 999.8 |
| 20260905060056 | 48 | 0 | 0.0 | 0.9 | 0.07 | 0.09 | 0.09 | 96 | 999.8 |
| 20260905055533 | 48 | 0 | 0.0 | 0.9 | 0.07 | 0.08 | 0.08 | 96 | 999.7 |
| 20260905055032 | 48 | 285 | 0.0 | 1.7 | 0.06 | 0.07 | 0.07 | 96 | 999.6 |
| 20260905054553 | 48 | 0 | 0.0 | 1.7 | 0.06 | 0.07 | 0.07 | 96 | 999.5 |
| 20260905054037 | 48 | 250 | 0.9 | 1.7 | 0.06 | 0.07 | 0.07 | 96 | 999.5 |
| 20260905053533 | 48 | 0 | 0.0 | 1.7 | 0.04 | 0.06 | 0.06 | 96 | 999.3 |
| 20260905053048 | 48 | 0 | 0.9 | 1.7 | 0.03 | 0.04 | 0.04 | 95 | 999.4 |
| 20260905052532 | 48 | 0 | 0.0 | 3.5 | 0.02 | 0.03 | 0.03 | 95 | 999.5 |
| 20260905052033 | 48 | 252 | 1.7 | 3.5 | 0.01 | 0.02 | 0.02 | 95 | 999.5 |
| 20260905051548 | 48 | 266 | 0.0 | 2.6 | 0.02 | 0.02 | 0.02 | 96 | 999.4 |
| 20260905051036 | 48 | 0 | 0.0 | 3.5 | 0.02 | 0.02 | 0.02 | 96 | 999.3 |
| 20260905050532 | 48 | 0 | 0.0 | 4.3 | 0.02 | 0.02 | 0.02 | 96 | 999.3 |
| 20260905050058 | 48 | 14 | 2.6 | 4.3 | 0.01 | 0.01 | 0.01 | 95 | 999.3 |
| 20260905045533 | 48 | 340 | 1.7 | 3.5 | 0.01 | 0.01 | 0.01 | 95 | 999.3 |
| 20260905045032 | 48 | 329 | 1.7 | 2.6 | 0.01 | 0.01 | 0.01 | 95 | 999.4 |
| 20260905044550 | 48 | 335 | 0.0 | 1.7 | 0.01 | 0.01 | 0.01 | 95 | 999.3 |
| 20260905044034 | 48 | 0 | 0.0 | 0.0 | 0.01 | 0.01 | 0.01 | 95 | 999.2 |
| 20260905043533 | 47 | 0 | 0.0 | 1.7 | 0.01 | 0.01 | 0.01 | 95 | 999.3 |
| 20260905043049 | 47 | 0 | 0.0 | 1.7 | 0.01 | 0.01 | 0.01 | 95 | 999.3 |
| 20260905042532 | 48 | 0 | 0.0 | 0.0 | 0.01 | 0.01 | 0.01 | 95 | 999.2 |
| 20260905042032 | 48 | 0 | 0.0 | 0.0 | 0.00 | 0.00 | 0.00 | 95 | 999.1 |
| 20260905041549 | 48 | 0 | 0.0 | 0.0 | 0.00 | 0.00 | 0.00 | 95 | 999.1 |
| 20260905041032 | 48 | 0 | 0.0 | 0.0 | 0.00 | 0.00 | 0.00 | 95 | 999.1 |
| 20260905040532 | 48 | 0 | 0.0 | 0.0 | 0.00 | 0.00 | 0.00 | 95 | 999.1 |
| 20260905040048 | 47 | 0 | 0.0 | 0.0 | 0.00 | 0.00 | 0.00 | 95 | 999.1 |
| 20260905035533 | 47 | 0 | 0.0 | 0.0 | 0.00 | 0.00 | 0.00 | 95 | 999.1 |
| 20260905035032 | 47 | 0 | 0.0 | 0.0 | 0.00 | 0.00 | 0.00 | 95 | 999.0 |
| 20260905034550 | 47 | 0 | 0.0 | 0.0 | 0.00 | 0.00 | 0.00 | 95 | 999.2 |
| 20260905034034 | 47 | 0 | 0.0 | 0.0 | 0.00 | 0.00 | 0.00 | 95 | 999.2 |
| 20260905033533 | 47 | 0 | 0.0 | 0.0 | 0.00 | 0.00 | 0.00 | 95 | 999.2 |
| 20260905033058 | 47 | 0 | 0.0 | 0.0 | 0.00 | 0.00 | 0.00 | 95 | 999.1 |
| 20260905032533 | 47 | 0 | 0.0 | 0.0 | 0.00 | 0.00 | 0.00 | 95 | 999.1 |
| 20260905032032 | 47 | 0 | 0.0 | 0.0 | 0.00 | 0.00 | 0.00 | 95 | 999.0 |
| 20260905031556 | 47 | 0 | 0.0 | 0.0 | 0.00 | 0.00 | 0.00 | 95 | 999.0 |
| 20260905031034 | 47 | 0 | 0.0 | 0.0 | 0.00 | 0.00 | 0.00 | 95 | 999.1 |
| 20260905030534 | 47 | 0 | 0.0 | 0.0 | 0.00 | 0.00 | 0.00 | 95 | 999.1 |
| 20260905030119 | 47 | 0 | 0.0 | 0.0 | 0.00 | 0.00 | 0.00 | 95 | 999.1 |
| 20260905025534 | 47 | 0 | 0.0 | 0.0 | 0.00 | 0.02 | 0.00 | 95 | 999.1 |
| 20260905025034 | 47 | 0 | 0.0 | 0.0 | 0.00 | 0.02 | 0.00 | 95 | 999.0 |
| 20260905024604 | 47 | 0 | 0.0 | 0.0 | 0.00 | 0.02 | 0.00 | 95 | 999.0 |
| 20260905024035 | 47 | 0 | 0.0 | 0.0 | 0.00 | 0.02 | 0.00 | 95 | 999.0 |
| 20260905023535 | 47 | 0 | 0.0 | 0.0 | 0.00 | 0.02 | 0.00 | 95 | 998.9 |
| 20260905023047 | 47 | 0 | 0.0 | 0.0 | 0.00 | 0.02 | 0.00 | 95 | 998.8 |
| 20260905022534 | 46 | 0 | 0.0 | 0.0 | 0.00 | 0.02 | 0.00 | 95 | 998.9 |
| 20260905022034 | 46 | 0 | 0.0 | 0.0 | 0.00 | 0.02 | 0.00 | 95 | 998.8 |
| 20260905021556 | 46 | 0 | 0.0 | 0.9 | 0.00 | 0.02 | 0.00 | 95 | 998.8 |
| 20260905021034 | 46 | 0 | 0.0 | 0.9 | 0.00 | 0.02 | 0.00 | 95 | 998.8 |
| 20260905020536 | 46 | 0 | 0.0 | 0.9 | 0.00 | 0.02 | 0.00 | 95 | 998.7 |
| 20260905020051 | 46 | 0 | 0.0 | 1.7 | 0.00 | 0.02 | 0.00 | 95 | 998.8 |
| 20260905015535 | 46 | 0 | 0.0 | 1.7 | 0.00 | 0.06 | 0.00 | 95 | 998.7 |
| 20260905015038 | 46 | 108 | 0.9 | 1.7 | 0.00 | 0.06 | 0.00 | 95 | 998.6 |
| 20260905014600 | 46 | 48 | 0.0 | 0.9 | 0.00 | 0.06 | 0.00 | 95 | 998.8 |
| 20260905014035 | 46 | 14 | 0.0 | 0.9 | 0.00 | 0.06 | 0.00 | 95 | 998.7 |
| 20260905013535 | 46 | 0 | 0.0 | 0.0 | 0.00 | 0.06 | 0.00 | 95 | 998.6 |
| 20260905013047 | 46 | 0 | 0.0 | 0.0 | 0.00 | 0.06 | 0.00 | 95 | 998.7 |
| 20260905012538 | 46 | 0 | 0.0 | 0.0 | 0.00 | 0.06 | 0.00 | 95 | 998.6 |
| 20260905012035 | 46 | 0 | 0.0 | 0.0 | 0.00 | 0.06 | 0.00 | 95 | 998.7 |
| 20260905011556 | 46 | 0 | 0.0 | 0.0 | 0.00 | 0.06 | 0.00 | 95 | 998.6 |
| 20260905011035 | 47 | 0 | 0.0 | 0.0 | 0.00 | 0.06 | 0.00 | 95 | 998.6 |
| 20260905010538 | 46 | 0 | 0.0 | 0.0 | 0.00 | 0.06 | 0.00 | 95 | 998.5 |
| 20260905010050 | 46 | 0 | 0.0 | 0.9 | 0.00 | 0.06 | 0.00 | 95 | 998.6 |
| 20260905005535 | 46 | 0 | 0.0 | 0.9 | 0.00 | 0.08 | 0.00 | 95 | 998.5 |
| 20260905005034 | 46 | 0 | 0.0 | 1.7 | 0.00 | 0.08 | 0.00 | 95 | 998.5 |
| 20260905004550 | 47 | 0 | 0.0 | 1.7 | 0.00 | 0.08 | 0.00 | 95 | 998.5 |
| 20260905004034 | 47 | 353 | 0.0 | 0.0 | 0.00 | 0.08 | 0.00 | 95 | 998.4 |
| 20260905003535 | 46 | 0 | 0.0 | 0.0 | 0.00 | 0.08 | 0.00 | 95 | 998.4 |
| 20260905003044 | 46 | 0 | 0.0 | 0.9 | 0.00 | 0.08 | 0.00 | 95 | 998.6 |
| 20260905002534 | 46 | 0 | 0.0 | 1.7 | 0.00 | 0.08 | 0.00 | 94 | 998.5 |
| 20260905002035 | 46 | 289 | 0.0 | 1.7 | 0.00 | 0.08 | 0.00 | 95 | 998.4 |
| 20260905001552 | 47 | 300 | 0.0 | 1.7 | 0.00 | 0.08 | 0.00 | 95 | 998.3 |
| 20260905001035 | 47 | 0 | 0.0 | 0.0 | 0.00 | 0.08 | 0.00 | 95 | 998.3 |
| 20260905000538 | 46 | 0 | 0.0 | 0.0 | 0.00 | 0.08 | 0.00 | 95 | 998.5 |
| 20260905000105 | 47 | 0 | 0.0 | 0.0 | 0.00 | 0.08 | 0.00 | 95 | 998.4 |
| 20260904235531 | 47 | 0 | 0.0 | 0.9 | 0.00 | 0.08 | 0.00 | 95 | 998.3 |
| 20260904235032 | 46 | 0 | 0.0 | 0.9 | 0.00 | 0.08 | 0.00 | 94 | 998.4 |
| 20260904234606 | 46 | 110 | 0.0 | 0.9 | 0.00 | 0.08 | 0.00 | 94 | 998.3 |
| 20260904234031 | 46 | 0 | 0.0 | 0.0 | 0.00 | 0.08 | 0.00 | 94 | 998.2 |
| 20260904233534 | 46 | 0 | 0.0 | 0.0 | 0.00 | 0.08 | 0.00 | 94 | 998.2 |
| 20260904233056 | 46 | 0 | 0.0 | 0.9 | 0.00 | 0.08 | 0.00 | 94 | 998.2 |
| 20260904232536 | 47 | 0 | 0.0 | 2.6 | 0.00 | 0.08 | 0.00 | 94 | 998.1 |
| 20260904232035 | 47 | 356 | 0.9 | 2.6 | 0.00 | 0.08 | 0.00 | 94 | 998.2 |
| 20260904231553 | 47 | 352 | 0.9 | 1.7 | 0.00 | 0.08 | 0.00 | 94 | 998.1 |
| 20260904231035 | 47 | 355 | 0.0 | 1.7 | 0.00 | 0.08 | 0.00 | 94 | 998.2 |
| 20260904230535 | 47 | 352 | 0.0 | 1.7 | 0.00 | 0.08 | 0.00 | 94 | 998.2 |
| 20260904230048 | 47 | 0 | 0.0 | 0.0 | 0.00 | 0.08 | 0.00 | 94 | 998.3 |
| 20260904225531 | 47 | 0 | 0.0 | 0.0 | 0.00 | 0.08 | 0.00 | 94 | 998.3 |
| 20260904225034 | 47 | 0 | 0.0 | 0.0 | 0.00 | 0.08 | 0.00 | 94 | 998.3 |
| 20260904224546 | 47 | 0 | 0.0 | 0.0 | 0.00 | 0.08 | 0.00 | 93 | 998.3 |
| 20260904224035 | 47 | 0 | 0.0 | 0.0 | 0.00 | 0.08 | 0.00 | 93 | 998.2 |
| 20260904223536 | 47 | 0 | 0.0 | 0.0 | 0.00 | 0.08 | 0.00 | 93 | 998.2 |
| 20260904223056 | 47 | 0 | 0.0 | 0.0 | 0.00 | 0.08 | 0.00 | 93 | 998.1 |
| 20260904222533 | 47 | 0 | 0.0 | 0.0 | 0.00 | 0.08 | 0.00 | 93 | 998.2 |
| 20260904222032 | 47 | 0 | 0.0 | 0.0 | 0.00 | 0.08 | 0.00 | 93 | 998.3 |
| 20260904221600 | 47 | 0 | 0.0 | 0.0 | 0.00 | 0.08 | 0.00 | 93 | 998.2 |
| 20260904221033 | 47 | 0 | 0.0 | 0.0 | 0.00 | 0.08 | 0.00 | 93 | 998.3 |
| 20260904220532 | 48 | 0 | 0.0 | 0.0 | 0.00 | 0.08 | 0.00 | 93 | 998.3 |
| 20260904220111 | 48 | 0 | 0.0 | 0.0 | 0.00 | 0.08 | 0.00 | 92 | 998.2 |
| 20260904215532 | 48 | 0 | 0.0 | 0.0 | 0.00 | 0.08 | 0.08 | 92 | 998.2 |
| 20260904215031 | 48 | 0 | 0.0 | 0.0 | 0.00 | 0.08 | 0.08 | 92 | 998.1 |
| 20260904214553 | 48 | 0 | 0.0 | 0.0 | 0.00 | 0.08 | 0.08 | 92 | 998.1 |
| 20260904214032 | 48 | 0 | 0.0 | 0.0 | 0.00 | 0.08 | 0.08 | 92 | 998.0 |
| 20260904213532 | 49 | 0 | 0.0 | 0.0 | 0.00 | 0.08 | 0.08 | 92 | 998.1 |
| 20260904213054 | 49 | 0 | 0.0 | 0.0 | 0.00 | 0.08 | 0.08 | 92 | 998.0 |
| 20260904212532 | 49 | 0 | 0.0 | 0.0 | 0.00 | 0.08 | 0.08 | 92 | 998.0 |
| 20260904212032 | 49 | 0 | 0.0 | 0.0 | 0.00 | 0.08 | 0.08 | 91 | 998.1 |
| 20260904211555 | 49 | 0 | 0.0 | 0.0 | 0.00 | 0.08 | 0.08 | 91 | 998.1 |
| 20260904211032 | 49 | 0 | 0.0 | 0.0 | 0.00 | 0.08 | 0.08 | 91 | 998.0 |
| 20260904210532 | 49 | 0 | 0.0 | 0.0 | 0.00 | 0.08 | 0.08 | 91 | 997.8 |
| 20260904210100 | 49 | 0 | 0.0 | 0.0 | 0.00 | 0.08 | 0.08 | 90 | 997.9 |
| 20260904205533 | 50 | 0 | 0.0 | 0.0 | 0.00 | 0.08 | 0.08 | 90 | 997.9 |
| 20260904205034 | 50 | 0 | 0.0 | 1.7 | 0.00 | 0.08 | 0.08 | 90 | 997.9 |
| 20260904204555 | 50 | 0 | 0.0 | 1.7 | 0.00 | 0.08 | 0.08 | 90 | 998.0 |
| 20260904204032 | 51 | 342 | 0.9 | 2.6 | 0.00 | 0.08 | 0.08 | 89 | 997.9 |
| 20260904203532 | 51 | 349 | 0.9 | 2.6 | 0.00 | 0.08 | 0.08 | 90 | 998.0 |
| 20260904203048 | 51 | 352 | 2.6 | 3.5 | 0.00 | 0.08 | 0.08 | 90 | 997.9 |
| 20260904202535 | 51 | 340 | 2.6 | 3.5 | 0.00 | 0.08 | 0.08 | 90 | 997.9 |
| 20260904202035 | 50 | 335 | 2.6 | 3.5 | 0.00 | 0.08 | 0.08 | 90 | 998.0 |
| 20260904201556 | 50 | 21 | 0.0 | 1.7 | 0.00 | 0.08 | 0.08 | 90 | 998.0 |
| 20260904201031 | 50 | 0 | 0.0 | 0.0 | 0.00 | 0.08 | 0.08 | 90 | 998.1 |
| 20260904200533 | 50 | 0 | 0.0 | 0.0 | 0.00 | 0.08 | 0.08 | 90 | 997.9 |
| 20260904200121 | 50 | 0 | 0.0 | 0.0 | 0.00 | 0.08 | 0.08 | 89 | 998.0 |
| 20260904195535 | 50 | 0 | 0.0 | 0.0 | 0.00 | 0.08 | 0.08 | 89 | 998.0 |
| 20260904195035 | 50 | 0 | 0.0 | 0.0 | 0.00 | 0.08 | 0.08 | 88 | 997.9 |
| 20260904194631 | 51 | 0 | 0.0 | 0.0 | 0.00 | 0.08 | 0.08 | 88 | 998.0 |
| 20260904194032 | 51 | 0 | 0.0 | 0.0 | 0.00 | 0.08 | 0.08 | 87 | 998.0 |
| 20260904193532 | 51 | 0 | 0.0 | 1.7 | 0.00 | 0.08 | 0.08 | 87 | 998.0 |
| 20260904193047 | 51 | 0 | 0.0 | 1.7 | 0.00 | 0.08 | 0.08 | 87 | 997.9 |
| 20260904192531 | 52 | 325 | 0.9 | 1.7 | 0.00 | 0.08 | 0.08 | 86 | 998.0 |
| 20260904192034 | 52 | 0 | 0.0 | 1.7 | 0.00 | 0.08 | 0.08 | 86 | 997.9 |
| 20260904191610 | 52 | 7 | 0.9 | 2.6 | 0.00 | 0.08 | 0.08 | 85 | 998.0 |
| 20260904191032 | 52 | 0 | 0.9 | 2.6 | 0.00 | 0.08 | 0.08 | 85 | 998.1 |
| 20260904190532 | 52 | 0 | 0.0 | 0.0 | 0.00 | 0.08 | 0.08 | 85 | 998.1 |
| 20260904190057 | 52 | 0 | 0.0 | 0.0 | 0.00 | 0.08 | 0.08 | 84 | 998.1 |
| 20260904185532 | 52 | 0 | 0.0 | 0.0 | 0.00 | 0.08 | 0.08 | 83 | 998.0 |
| 20260904185032 | 53 | 0 | 0.0 | 0.0 | 0.00 | 0.08 | 0.08 | 82 | 998.0 |
| 20260904184554 | 54 | 0 | 0.0 | 0.0 | 0.00 | 0.08 | 0.08 | 82 | 998.0 |
| 20260904184034 | 54 | 0 | 0.0 | 0.0 | 0.00 | 0.08 | 0.08 | 81 | 997.9 |
| 20260904183535 | 54 | 0 | 0.0 | 0.0 | 0.00 | 0.08 | 0.08 | 81 | 997.9 |
| 20260904183055 | 54 | 0 | 0.0 | 0.0 | 0.00 | 0.08 | 0.08 | 80 | 997.9 |
| 20260904182536 | 54 | 0 | 0.0 | 0.0 | 0.00 | 0.08 | 0.08 | 79 | 997.9 |
| 20260904182034 | 54 | 0 | 0.0 | 0.0 | 0.00 | 0.08 | 0.08 | 80 | 997.8 |
| 20260904181555 | 54 | 0 | 0.0 | 0.0 | 0.00 | 0.08 | 0.08 | 80 | 997.9 |
| 20260904181128 | 54 | 0 | 0.0 | 0.0 | 0.00 | 0.08 | 0.08 | 81 | 997.9 |
| 20260904180532 | 53 | 0 | 0.0 | 0.0 | 0.00 | 0.08 | 0.08 | 82 | 997.7 |
| 20260904180052 | 53 | 0 | 0.0 | 0.0 | 0.00 | 0.08 | 0.08 | 83 | 997.9 |
| 20260904175531 | 54 | 0 | 0.0 | 0.0 | 0.00 | 0.08 | 0.08 | 82 | 997.9 |
| 20260904175033 | 54 | 0 | 0.0 | 0.0 | 0.00 | 0.08 | 0.08 | 81 | 997.9 |
| 20260904174547 | 54 | 0 | 0.0 | 0.0 | 0.00 | 0.08 | 0.08 | 81 | 997.9 |
| 20260904174032 | 54 | 0 | 0.0 | 0.0 | 0.00 | 0.08 | 0.08 | 81 | 997.9 |
| 20260904173534 | 55 | 0 | 0.0 | 0.0 | 0.00 | 0.08 | 0.08 | 82 | 997.9 |
| 20260904173103 | 55 | 0 | 0.0 | 0.0 | 0.00 | 0.08 | 0.08 | 81 | 997.9 |
| 20260904172531 | 55 | 0 | 0.0 | 0.0 | 0.00 | 0.08 | 0.08 | 80 | 997.9 |
| 20260904172034 | 56 | 0 | 0.0 | 0.0 | 0.00 | 0.08 | 0.08 | 81 | 997.8 |
| 20260904171558 | 56 | 0 | 0.0 | 0.0 | 0.00 | 0.08 | 0.08 | 81 | 997.8 |
| 20260904171032 | 56 | 0 | 0.0 | 0.0 | 0.00 | 0.08 | 0.08 | 80 | 997.7 |
| 20260904170534 | 57 | 0 | 0.0 | 0.0 | 0.00 | 0.08 | 0.08 | 80 | 997.7 |
| 20260904170047 | 57 | 0 | 0.0 | 0.0 | 0.00 | 0.08 | 0.08 | 80 | 997.7 |
| 20260904165532 | 57 | 0 | 0.0 | 0.0 | 0.00 | 0.08 | 0.08 | 79 | 997.7 |
| 20260904165032 | 57 | 0 | 0.0 | 0.0 | 0.00 | 0.08 | 0.08 | 79 | 997.6 |
| 20260904164559 | 58 | 0 | 0.0 | 0.0 | 0.00 | 0.08 | 0.08 | 78 | 997.6 |
| 20260904164037 | 58 | 0 | 0.0 | 0.0 | 0.00 | 0.08 | 0.08 | 77 | 997.7 |
| 20260904163531 | 58 | 0 | 0.0 | 0.0 | 0.00 | 0.08 | 0.08 | 75 | 997.7 |
| 20260904163051 | 58 | 126 | 0.0 | 0.0 | 0.00 | 0.08 | 0.08 | 75 | 997.7 |
| 20260904162534 | 58 | 0 | 0.0 | 0.0 | 0.00 | 0.08 | 0.08 | 74 | 997.8 |
| 20260904162034 | 58 | 0 | 0.0 | 0.0 | 0.00 | 0.08 | 0.08 | 74 | 997.8 |
| 20260904161548 | 58 | 0 | 0.0 | 0.0 | 0.00 | 0.08 | 0.08 | 73 | 997.7 |
| 20260904161032 | 58 | 0 | 0.0 | 0.0 | 0.00 | 0.08 | 0.08 | 72 | 997.7 |
| 20260904160532 | 59 | 0 | 0.0 | 0.9 | 0.00 | 0.08 | 0.08 | 71 | 997.7 |
| 20260904160047 | 59 | 0 | 0.0 | 0.9 | 0.00 | 0.08 | 0.08 | 72 | 997.7 |
| 20260904155533 | 59 | 0 | 0.0 | 0.9 | 0.00 | 0.08 | 0.08 | 72 | 997.8 |
| 20260904155031 | 59 | 0 | 0.0 | 2.6 | 0.00 | 0.08 | 0.08 | 73 | 997.7 |
| 20260904154545 | 59 | 0 | 0.0 | 2.6 | 0.00 | 0.08 | 0.08 | 72 | 997.7 |
| 20260904154031 | 60 | 120 | 0.9 | 2.6 | 0.00 | 0.08 | 0.08 | 71 | 997.7 |
| 20260904153531 | 61 | 0 | 0.0 | 2.6 | 0.00 | 0.08 | 0.08 | 71 | 997.7 |
| 20260904153053 | 61 | 91 | 0.9 | 2.6 | 0.00 | 0.08 | 0.08 | 71 | 997.8 |
| 20260904152531 | 61 | 164 | 0.9 | 2.6 | 0.00 | 0.08 | 0.08 | 73 | 997.8 |
| 20260904152035 | 60 | 219 | 0.9 | 2.6 | 0.00 | 0.08 | 0.08 | 73 | 997.9 |
| 20260904151552 | 59 | 211 | 0.9 | 3.5 | 0.00 | 0.08 | 0.08 | 76 | 997.8 |
| 20260904151033 | 59 | 195 | 1.7 | 4.3 | 0.00 | 0.08 | 0.08 | 75 | 997.9 |
| 20260904150534 | 59 | 207 | 1.7 | 4.3 | 0.00 | 0.08 | 0.08 | 75 | 997.9 |
| 20260904150054 | 59 | 167 | 2.6 | 4.3 | 0.00 | 0.08 | 0.08 | 76 | 997.8 |
| 20260904145532 | 59 | 197 | 0.9 | 2.6 | 0.00 | 0.08 | 0.08 | 76 | 998.0 |
| 20260904145035 | 59 | 117 | 0.0 | 1.7 | 0.00 | 0.08 | 0.08 | 76 | 997.9 |
| 20260904144554 | 59 | 137 | 0.0 | 2.6 | 0.00 | 0.08 | 0.08 | 75 | 997.9 |
| 20260904144033 | 59 | 198 | 0.0 | 3.5 | 0.00 | 0.08 | 0.08 | 76 | 997.8 |
| 20260904143534 | 59 | 129 | 1.7 | 3.5 | 0.00 | 0.08 | 0.08 | 76 | 997.9 |
| 20260904143052 | 59 | 113 | 1.7 | 2.6 | 0.00 | 0.08 | 0.08 | 74 | 997.9 |
| 20260904142538 | 59 | 0 | 1.7 | 2.6 | 0.00 | 0.08 | 0.08 | 75 | 997.9 |
| 20260904142034 | 59 | 124 | 0.9 | 1.7 | 0.00 | 0.08 | 0.08 | 74 | 997.9 |
| 20260904141622 | 59 | 77 | 0.0 | 1.7 | 0.00 | 0.08 | 0.08 | 74 | 997.9 |
| 20260904141031 | 59 | 224 | 0.0 | 2.6 | 0.00 | 0.08 | 0.08 | 75 | 997.9 |
| 20260904140531 | 59 | 103 | 0.0 | 4.3 | 0.00 | 0.08 | 0.08 | 75 | 997.9 |
| 20260904140106 | 60 | 105 | 1.7 | 4.3 | 0.00 | 0.08 | 0.08 | 74 | 997.9 |
| 20260904135532 | 60 | 129 | 0.9 | 2.6 | 0.00 | 0.08 | 0.08 | 73 | 997.8 |
| 20260904135035 | 61 | 154 | 0.0 | 4.3 | 0.00 | 0.08 | 0.08 | 72 | 998.0 |
| 20260904134558 | 63 | 150 | 0.9 | 4.3 | 0.00 | 0.08 | 0.08 | 73 | 997.9 |
| 20260904134032 | 62 | 95 | 1.7 | 3.5 | 0.00 | 0.08 | 0.08 | 72 | 998.0 |
| 20260904133534 | 61 | 95 | 0.9 | 2.6 | 0.00 | 0.08 | 0.08 | 75 | 998.1 |
| 20260904133106 | 60 | 136 | 0.9 | 6.1 | 0.00 | 0.08 | 0.08 | 77 | 998.1 |
| 20260904132535 | 60 | 111 | 1.7 | 6.1 | 0.00 | 0.08 | 0.08 | 77 | 998.1 |